Location: ???????
(60.4260°N, 46.9069°E)
Time: 05:11:44
(UTC+00:00)

Cosmos 1975 - Pass Details

Date: 30 March 2020
Orbit: 542 x 561 km, 82.5° (Epoch: 05 June)

Event Time Altitude Azimuth Distance (km) Brightness Sun altitude
Rises 01:09:52 0° 344° (NNW) 2,726 6.5 -9.4°
Reaches altitude 10° 01:12:04 10° 340° (NNW) 1,830 5.6 -9.1°
Maximum altitude 01:16:00 57° 262° (W) 651 2.9 -8.7°
Drops below altitude 10° 01:19:56 10° 184° (S) 1,824 5.2 -8.2°
Sets 01:22:07 0° 180° (S) 2,717 6.1 -8.0°
